This is the latest recevied weather packets stored in our database for station/object KB3AWQ. If no packets are shown the sender has not sent any weather packets the latest 10 day(s).
| Time | Temp. | Humidity | Pressure | Rain* | Wind** | Luminosity | Snow |
|---|---|---|---|---|---|---|---|
| 1777925668 | 25° C | 35% | 1006.9 hPa | 0 mm | - | 445 W/m² | - |
| 1777925366 | 25° C | 37% | 1006.9 hPa | 0 mm | - | 603 W/m² | - |
| 1777925066 | 24.44° C | 38% | 1007.2 hPa | 0 mm | - | 626 W/m² | - |
| 1777924768 | 24.44° C | 37% | 1007.2 hPa | 0 mm | - | 613 W/m² | - |
| 1777924168 | 24.44° C | 36% | 1007.3 hPa | 0 mm | - | 641 W/m² | - |
| 1777923874 | 23.89° C | 38% | 1007.3 hPa | 0 mm | - | 674 W/m² | - |
| 1777923567 | 23.89° C | 39% | 1007.6 hPa | 0 mm | - | 654 W/m² | - |
| 1777923267 | 23.89° C | 38% | 1007.8 hPa | 0 mm | - | 202 W/m² | - |
| 1777922966 | 24.44° C | 37% | 1007.8 hPa | 0 mm | - | 476 W/m² | - |
| 1777922666 | 24.44° C | 39% | 1007.9 hPa | 0 mm | - | 790 W/m² | - |
| 1777922366 | 23.89° C | 39% | 1008 hPa | 0 mm | - | 789 W/m² | - |
| 1777922066 | 23.89° C | 41% | 1008 hPa | 0 mm | - | 235 W/m² | - |
| 1777921767 | 23.89° C | 39% | 1008.1 hPa | 0 mm | - | 199 W/m² | - |
| 1777921467 | 23.89° C | 41% | 1008 hPa | 0 mm | - | 808 W/m² | - |
| 1777921167 | 23.89° C | 38% | 1008.1 hPa | 0 mm | - | 832 W/m² | - |
| 1777920578 | 23.33° C | 42% | 1008.3 hPa | 0 mm | - | 464 W/m² | - |
| 1777920267 | 23.33° C | 39% | 1008.3 hPa | 0 mm | - | 518 W/m² | - |
| 1777919967 | 23.33° C | 41% | 1008.4 hPa | 0 mm | - | 923 W/m² | - |
| 1777919666 | 23.33° C | 43% | 1008.4 hPa | 0 mm | - | 906 W/m² | - |
| 1777919366 | 23.33° C | 42% | 1008.5 hPa | 0 mm | - | 382 W/m² | - |
| 1777919068 | 22.78° C | 41% | 1008.6 hPa | 0 mm | - | 514 W/m² | - |
| 1777918767 | 22.78° C | 43% | 1008.6 hPa | 0 mm | - | 445 W/m² | - |
| 1777918467 | 22.78° C | 42% | 1008.8 hPa | 0 mm | - | 513 W/m² | - |
| 1777918167 | 22.78° C | 43% | 1008.8 hPa | 0 mm | - | 791 W/m² | - |
| 1777917867 | 23.33° C | 42% | 1008.9 hPa | 0 mm | - | 168 W/m² | - |
* Rain latest hour (hover to see other rain measurements)
** Current wind speed in m/s (hover to see current wind gust speed)